Weather History for Baker, MT

Change the Weather History Date:

Thursday, November 29, 2012

  Actual Average Record
Temperature  
Mean Temperature 30 °F -  
Max Temperature 37 °F 32 °F 51 °F (2013)
Min Temperature 23 °F 17 °F -9 °F (2006)
Degree Days  
Heating Degree Days 35    
Moisture  
Dew Point 20 °F    
Average Humidity 72    
Maximum Humidity 81    
Minimum Humidity 55    
Precipitation  
Precipitation 0.00 in - - ()
Sea Level Pressure  
Sea Level Pressure 29.97 in    
Wind  
Wind Speed 9 mph (ESE)    
Max Wind Speed 15 mph    
Max Gust Speed -    
Visibility 10 miles    
Events      
Averages and records for this station are not official NWS values.
T = Trace of Precipitation, MM = Missing Value Source: NWS Daily Summary

Daily Weather History Graph

Daily Weather History Graph

Search for Another Location

Airport:

Trip Planner

Search our weather history database for the weather conditions in past years. The results will help you decide how hot, cold, wet, or windy it might be!

Date:

Astronomy

Nov. 29, 2012 Rise Set
Actual Time 7:17 AM MST 4:12 PM MST
Civil Twilight 6:43 AM MST 4:46 PM MST
Nautical Twilight 6:06 AM MST 5:24 PM MST
Astronomical Twilight 5:30 AM MST 6:00 PM MST
Moon 5:17 PM MST (11/29) 8:07 AM MST (11/29)
Length of Visible Light 10h 03m
Length of Day
8h 54m
Full, 99% of the Moon is Illuminated
Nov 29
Full
Dec 6
Last Quarter
Dec 13
New
Dec 19
First Quarter
Dec 28
Full

Hourly Weather History & Observations

Time (MST) Temp. Windchill Dew Point Humidity Pressure Visibility Wind Dir Wind Speed Gust Speed Precip Events Conditions
1:51 AM 25.0 °F 14.2 °F 18.0 °F 75% 29.94 in 10.0 mi ESE 11.5 mph - N/A   Clear
2:51 AM 25.0 °F 14.8 °F 18.0 °F 75% 29.93 in 10.0 mi ESE 10.4 mph - N/A   Clear
3:51 AM 25.0 °F 13.6 °F 18.0 °F 75% 29.92 in 10.0 mi ESE 12.7 mph - N/A   Clear
4:51 AM 24.1 °F 14.4 °F 18.0 °F 77% 29.94 in 10.0 mi ESE 9.2 mph - N/A   Clear
5:51 AM 25.0 °F 14.2 °F 18.0 °F 75% 29.94 in 10.0 mi ESE 11.5 mph - N/A   Clear
6:51 AM 24.1 °F 11.5 °F 18.0 °F 77% 29.95 in 10.0 mi ESE 15.0 mph - N/A   Clear
7:51 AM 23.0 °F 11.1 °F 17.1 °F 78% 29.96 in 10.0 mi ESE 12.7 mph - N/A   Clear
8:51 AM 24.1 °F 11.5 °F 18.0 °F 77% 29.96 in 10.0 mi ESE 15.0 mph - N/A   Clear
9:51 AM 28.0 °F 17.5 °F 19.9 °F 72% 29.97 in 10.0 mi SE 12.7 mph - N/A   Mostly Cloudy
10:51 AM 30.9 °F 22.2 °F 21.0 °F 67% 29.96 in 10.0 mi ESE 10.4 mph - N/A   Overcast
11:51 AM 32.0 °F 24.8 °F 21.0 °F 64% 29.95 in 10.0 mi East 8.1 mph - N/A   Overcast
12:51 PM 34.0 °F 28.8 °F 21.9 °F 61% 29.93 in 10.0 mi East 5.8 mph - N/A   Overcast
1:51 PM 37.0 °F 32.4 °F 23.0 °F 57% 29.93 in 10.0 mi East 5.8 mph - N/A   Mostly Cloudy
2:51 PM 37.9 °F - 23.0 °F 55% 29.96 in 10.0 mi Calm Calm - N/A   Overcast
4:51 PM 33.1 °F 30.0 °F 23.0 °F 66% 30.00 in 10.0 mi West 3.5 mph - N/A   Overcast
5:51 PM 30.9 °F - 23.0 °F 72% 30.02 in 10.0 mi Calm Calm - N/A   Clear
6:51 PM 25.0 °F - 19.0 °F 78% 30.03 in 10.0 mi Calm Calm - N/A   Clear
7:51 PM 24.1 °F 19.7 °F 19.0 °F 81% 30.02 in 10.0 mi SE 3.5 mph - N/A   Clear
9:51 PM 24.1 °F 17.0 °F 19.0 °F 81% 30.02 in 10.0 mi ESE 5.8 mph - N/A   Clear
10:51 PM 25.0 °F 20.7 °F 19.9 °F 81% 30.01 in 10.0 mi East 3.5 mph - N/A   Clear
11:51 PM 26.1 °F - 19.9 °F 78% 30.00 in 10.0 mi Calm Calm - N/A   Clear